EW2701 Weather Reports


Display with metric or nautical units.
time (UTC)temp
F
wind
direction
speed
MPH
gust
MPH
rain 1hr
in
rain 24hr
in
rain mn
in
humidity
%
barometer
mb
20260504050018 54 208 0.0 0.0 0.00 0.00 0.00 57 1015.4
20260504044515 54 208 0.0 0.0 0.00 0.00 0.00 58 1015.6
20260504043019 55 208 0.0 0.0 0.00 0.00 0.00 59 1015.5
20260504041506 55 208 0.0 0.0 0.00 0.00 0.00 60 1015.6
20260504040003 55 208 0.0 0.0 0.00 0.00 0.00 62 1015.6
20260504034632 56 208 0.0 0.0 0.00 0.00 0.00 62 1015.6
20260504033055 56 208 0.0 0.0 0.00 0.00 0.00 64 1015.6
20260504031549 57 208 0.0 0.0 0.00 0.00 0.00 66 1015.5
20260504024541 58 208 0.0 0.0 0.00 0.00 0.00 69 1015.2
20260504023036 58 208 0.0 0.0 0.00 0.00 0.00 68 1015.1
20260504021531 59 208 0.0 0.0 0.00 0.00 0.00 68 1015.1
20260504020028 59 208 0.0 0.0 0.00 0.00 0.00 69 1014.9
20260504014524 60 233 0.0 0.0 0.00 0.00 0.00 70 1014.7
20260504013025 61 233 0.0 0.0 0.00 0.00 0.00 70 1014.6
20260504011515 62 233 0.0 0.0 0.00 0.00 0.00 68 1014.6
20260504010010 63 233 0.0 0.0 0.00 0.00 0.00 68 1014.6
20260504004506 64 233 0.0 0.0 0.00 0.00 0.00 65 1014.4
20260504003001 65 233 0.0 0.0 0.00 0.00 0.00 63 1014.2
20260504001607 67 233 0.0 0.0 0.00 0.00 0.00 64 1014.1
20260504000057 68 214 0.0 0.0 0.00 0.00 0.00 57 1014.2
20260503234549 69 220 0.0 0.0 0.00 0.00 0.00 58 1014.2
20260503233043 70 217 0.0 0.0 0.00 0.00 0.00 54 1014.2
20260503231540 72 221 0.0 0.0 0.00 0.00 0.00 50 1014.2
20260503230041 73 179 0.0 0.0 0.00 0.00 0.00 51 1014.3
20260503224532 75 206 0.0 0.0 0.00 0.00 0.00 44 1014.2
20260503223026 77 25 0.0 0.0 0.00 0.00 0.00 41 1014.3
20260503221522 78 308 0.0 0.0 0.00 0.00 0.00 36 1014.5
20260503220018 78 329 0.0 0.0 0.00 0.00 0.00 36 1014.6
20260503214514 77 225 0.0 0.0 0.00 0.00 0.00 35 1014.6
20260503213010 77 295 0.0 0.0 0.00 0.00 0.00 38 1014.9
20260503211505 78 319 0.0 0.0 0.00 0.00 0.00 41 1015.1
20260503210101 78 41 0.0 0.0 0.00 0.00 0.00 37 1015.1
20260503204602 77 321 0.0 0.0 0.00 0.00 0.00 33 1015.4
20260503203052 77 44 0.0 0.0 0.00 0.00 0.00 36 1015.6
20260503201548 77 18 0.0 0.0 0.00 0.00 0.00 41 1016.0
20260503200043 77 293 0.0 0.0 0.00 0.00 0.00 40 1016.2
20260503194542 77 280 0.0 0.0 0.00 0.00 0.00 40 1016.5
20260503193036 76 308 0.0 0.0 0.00 0.00 0.00 38 1016.7
20260503191530 76 290 0.0 0.0 0.00 0.00 0.00 37 1016.8
20260503190041 76 307 0.0 0.0 0.00 0.00 0.00 39 1017.0
20260503184522 75 239 0.0 0.0 0.00 0.00 0.00 37 1017.2
20260503183017 75 94 0.0 0.0 0.00 0.00 0.00 37 1017.2
20260503181513 75 303 0.0 0.0 0.00 0.00 0.00 40 1017.6
20260503180011 74 1 0.0 0.0 0.00 0.00 0.00 38 1017.8
20260503174505 74 330 0.0 0.0 0.00 0.00 0.00 44 1018.2
20260503173115 73 171 0.0 0.0 0.00 0.00 0.00 40 1018.3
20260503171555 74 339 0.0 0.0 0.00 0.00 0.00 37 1018.6
20260503130109 52 338 0.0 0.0 0.00 0.00 0.00 61 1017.8
20260503081534 48 330 0.0 0.0 0.00 0.00 0.00 52 1016.2